Voltar ao catálogo

STARLINK-4641

AtivoComunicaçõesVLEO
NORAD 53730·PAYLOAD·🇺🇸 United States

Lançado Sep 5, 2022 de Cape Canaveral Space Force Station

Loading…

Próximas Passagens (próximas 24 horas)

TLE

AtualizadoSource: CelesTrak SupGP

Época: Sep 14, 2026, 20:40 UTC

1 53730C 22107AG  26257.86159722 -.00021417  00000+0 -63298-3 0  2576
2 53730  53.1584 109.9391 0001312  88.0566  11.5677 15.34390544    14

Acompanhe STARLINK-4641 em tempo real com AllMySat

Download on the App Store